Probability
0 0 0 0 0 0 0 0 0 0 0 0 0 0 0 0 0 0 0 0 3 3 3 0 0 0 0 0 0 0 0 0 0 0 0 0 0 0 0 0 0 0 0 0
0 0 0 0 0 0 0 0 0 0 0 0 0 0 0 0 0 0 0 0 0 0 0 0 0 0 0 0 0 0 0 0 0 0 0 0 0 0 0 0 0 0 0 0
0 0 0 0 0 0 0 0 0 0 0 0 0 0 0 0 0 0 0 0 0 0 0 0 0 0 0 0 0 0 0 0 0 0 0 0 0 0 0 0 0 0 0 0
0 0 0 0 0 0 0 0 0 0 0 0 0 0 0 0 0 0 3 0 0 0 0 3 0 0 0 0 0 0 0 0 0 0 0 0 0 0 0 0 0 0 0 0
0 0 0 0 0 0 0 0 0 0 0 0 0 0 0 0 0 0 3 3 0 0 0 3 0 0 0 0 0 0 0 0 0 0 0 0 0 0 0 0 0 0 0 0
0 0 0 0 0 0 0 0 0 0 0 0 0 0 0 0 0 0 0 3 3 0 0 0 3 3 0 0 0 0 0 0 0 0 0 0 0 0 0 0 0 0 0 0
0 0 0 0 0 0 0 0 0 0 0 0 0 0 0 0 0 0 0 3 3 3 0 3 3 3 0 0 0 0 0 0 0 0 0 0 0 0 0 0 0 0 0 0
0 0 0 0 0 0 0 0 0 0 0 0 0 0 0 0 0 0 0 3 3 3 0 0 3 3 0 0 0 0 0 0 0 0 0 0 0 0 0 0 0 0 0 0
0 0 0 0 0 0 0 0 0 0 0 0 0 0 0 0 0 0 0 3 3 3 0 0 0 3 0 0 0 0 0 0 0 0 0 0 0 0 0 0 0 0 0 0
0 0 0 0 0 0 0 0 0 0 0 0 0 0 0 0 0 0 0 3 3 3 3 0 0 0 0 0 0 0 0 0 0 0 0 0 0 0 0 0 0 0 0 0
0 0 0 0 0 0 0 0 0 0 0 0 0 0 0 0 0 0 0 0 0 3 3 0 0 0 0 0 0 0 0 0 0 0 0 0 0 0 0 0 0 0 0 0
0 0 0 0 0 0 0 0 0 0 0 0 0 0 0 0 0 0 0 0 0 3 3 0 0 0 0 0 0 0 0 0 0 0 0 0 0 0 0 0 0 0 0 0
0 0 0 0 0 0 0 0 0 0 0 0 0 0 0 0 0 0 0 0 0 3 0 0 0 0 0 0 0 0 0 0 0 0 0 0 0 0 0 0 0 0 0 0
0 0 0 0 0 0 0 0 0 0 0 0 0 0 0 0 0 0 0 0 0 3 3 0 0 0 0 0 0 0 0 3 0 0 0 0 0 0 0 0 0 0 0 0
0 0 0 0 0 0 0 0 0 0 0 0 0 0 0 0 0 0 0 0 0 3 3 0 0 0 0 0 0 0 0 0 0 0 0 0 0 0 0 0 0 0 0 0
0 0 0 0 0 0 0 0 0 0 0 0 0 0 0 0 0 0 0 0 0 0 3 3 0 0 0 0 0 0 0 0 0 0 0 0 0 0 0 0 0 0 0 0
0 0 0 0 0 0 0 0 0 0 0 0 0 0 0 0 0 0 0 0 0 0 3 0 0 0 3 0 0 0 0 0 0 0 0 0 0 0 0 0 0 0 0 0
0 0 0 0 0 0 0 0 0 0 0 0 0 0 0 0 0 0 0 0 0 0 0 0 0 0 3 0 0 0 0 0 0 0 0 0 0 0 0 0 0 0 0 0
0 0 0 0 0 0 0 0 0 0 0 0 0 0 0 0 0 0 0 0 0 0 0 0 0 0 0 0 0 0 0 0 0 0 0 0 0 0 0 0 0 0 0 0
0 0 0 0 0 0 0 0 0 0 0 0 0 0 0 0 0 0 0 0 0 0 0 0 0 0 0 0 0 0 0 0 0 0 0 0 0 0 0 0 0 0 0 0
0 0 0 0 0 0 0 0 0 0 0 0 0 0 0 0 0 0 0 0 0 0 0 0 0 0 3 0 0 0 0 0 0 0 0 0 0 0 0 0 0 0 0 0
0 0 0 0 0 0 0 0 0 0 0 0 0 0 0 0 0 0 0 0 0 0 0 0 0 0 0 0 0 0 0 0 0 0 0 0 0 0 0 0 0 0 0 0
0 0 0 0 0 0 0 0 0 0 0 0 0 0 0 0 0 0 0 0 0 0 0 0 0 0 0 0 0 0 0 0 0 0 0 0 0 0 0 0 0 0 0 0
0 0 0 0 0 0 0 0 0 0 0 0 0 0 0 0 0 0 0 0 0 0 0 0 0 0 0 0 0 0 0 0 0 0 0 0 0 0 0 0 0 0 0 0
0 0 0 0 0 0 0 0 0 0 0 0 0 0 0 0 0 0 0 0 0 0 0 0 0 0 0 0 0 0 0 0 0 0 0 0 0 0 0 0 0 0 0 0
0 0 0 0 0 0 0 0 0 0 0 0 0 0 0 0 0 0 0 0 0 0 0 0 0 0 0 0 0 0 0 0 0 0 0 0 0 0 0 0 0 0 0 0
Height
5885 5886 5885 5884 5884 5883 5882 5882 5881 5881 5879 5879 5878 5878 5877 5876 5875 5875 5874 5874 5874 5873 5872 5872 5872 5871 5871 5871 5871 5871 5871 5871 5871 5871 5871 5871 5871 5870 5870 5870 5869 5869 5869 5868
5884 5884 5883 5882 5881 5881 5880 5880 5880 5879 5878 5877 5877 5876 5875 5875 5874 5873 5873 5872 5872 5871 5871 5871 5870 5870 5869 5869 5869 5869 5869 5869 5869 5870 5870 5870 5870 5869 5869 5869 5869 5868 5868 5867
5882 5882 5881 5880 5880 5879 5878 5878 5878 5877 5876 5875 5875 5875 5874 5873 5872 5872 5871 5871 5871 5870 5869 5869 5869 5868 5868 5868 5868 5868 5868 5868 5868 5869 5869 5869 5869 5869 5869 5869 5868 5868 5867 5867
5880 5879 5879 5878 5877 5877 5876 5876 5876 5875 5875 5874 5874 5873 5873 5871 5870 5870 5870 5869 5869 5869 5868 5868 5867 5867 5867 5867 5867 5867 5867 5867 5867 5867 5868 5868 5868 5868 5868 5868 5868 5868 5867 5867
5878 5877 5876 5876 5875 5875 5875 5874 5874 5873 5873 5873 5872 5871 5872 5869 5869 5868 5868 5867 5867 5867 5866 5866 5866 5866 5865 5866 5866 5865 5866 5866 5866 5866 5867 5867 5867 5867 5867 5867 5867 5867 5866 5866
5876 5875 5875 5874 5873 5873 5872 5873 5872 5872 5871 5871 5870 5870 5869 5868 5867 5867 5866 5866 5865 5865 5865 5865 5864 5864 5864 5864 5864 5864 5865 5865 5865 5865 5865 5866 5865 5866 5866 5866 5866 5866 5866 5865
5873 5873 5873 5872 5871 5871 5871 5871 5871 5870 5869 5869 5868 5868 5868 5867 5866 5865 5865 5865 5864 5864 5864 5863 5863 5863 5862 5862 5862 5863 5863 5863 5864 5864 5864 5864 5864 5864 5864 5864 5864 5865 5864 5864
5871 5871 5871 5870 5870 5870 5869 5869 5870 5869 5868 5867 5867 5866 5867 5865 5864 5863 5863 5863 5863 5862 5862 5862 5861 5861 5861 5861 5861 5861 5861 5862 5862 5863 5863 5863 5863 5863 5863 5863 5863 5863 5863 5863
5869 5869 5869 5868 5868 5868 5867 5867 5867 5867 5865 5865 5865 5864 5864 5863 5862 5862 5862 5861 5861 5861 5860 5860 5859 5859 5859 5859 5859 5860 5860 5861 5861 5862 5862 5862 5862 5862 5862 5862 5862 5862 5862 5862
5866 5866 5866 5866 5866 5865 5866 5865 5865 5864 5864 5863 5863 5862 5863 5861 5861 5860 5860 5859 5859 5858 5858 5857 5857 5857 5857 5858 5858 5858 5859 5859 5860 5860 5861 5861 5861 5861 5861 5861 5861 5861 5861 5861
5862 5863 5864 5863 5863 5863 5863 5863 5862 5862 5861 5861 5861 5863 5860 5859 5859 5858 5857 5857 5857 5856 5855 5855 5855 5856 5856 5856 5856 5857 5857 5858 5858 5859 5860 5860 5860 5860 5860 5860 5860 5860 5860 5860
5859 5860 5860 5860 5860 5860 5860 5860 5860 5860 5859 5858 5858 5861 5857 5857 5856 5855 5855 5855 5854 5854 5853 5853 5853 5853 5854 5854 5854 5855 5856 5856 5857 5858 5858 5858 5859 5859 5859 5859 5859 5859 5859 5858
5855 5856 5856 5857 5859 5858 5857 5857 5856 5856 5856 5856 5855 5858 5855 5854 5854 5853 5853 5852 5852 5851 5851 5851 5851 5851 5852 5852 5853 5853 5854 5855 5855 5856 5856 5857 5857 5857 5857 5857 5857 5857 5857 5857
5851 5851 5853 5854 5853 5853 5853 5853 5853 5853 5853 5853 5853 5853 5852 5851 5851 5850 5850 5850 5850 5850 5849 5849 5849 5849 5850 5850 5851 5852 5852 5853 5853 5854 5854 5855 5855 5855 5855 5855 5855 5855 5855 5855
5846 5847 5847 5848 5849 5849 5849 5850 5850 5850 5850 5850 5850 5849 5849 5848 5848 5848 5847 5847 5847 5847 5847 5847 5847 5847 5847 5848 5849 5849 5850 5851 5851 5852 5852 5852 5853 5853 5853 5853 5853 5853 5852 5852
5841 5842 5843 5844 5844 5844 5845 5846 5846 5846 5846 5846 5846 5846 5846 5845 5845 5845 5845 5844 5844 5844 5844 5844 5845 5845 5845 5846 5846 5847 5848 5848 5849 5849 5849 5850 5850 5850 5850 5850 5850 5850 5850 5850
5836 5838 5838 5839 5840 5840 5840 5842 5842 5842 5842 5842 5842 5843 5842 5842 5842 5841 5841 5841 5841 5841 5841 5842 5842 5843 5843 5844 5844 5844 5845 5846 5846 5846 5847 5847 5847 5847 5847 5847 5847 5847 5847 5847
5831 5832 5833 5834 5835 5835 5839 5837 5837 5837 5837 5838 5838 5838 5838 5838 5838 5838 5838 5838 5838 5838 5838 5838 5839 5840 5841 5841 5842 5842 5842 5843 5843 5844 5844 5844 5844 5844 5844 5843 5843 5843 5843 5843
5825 5826 5827 5828 5828 5829 5832 5832 5832 5832 5833 5833 5833 5833 5833 5833 5834 5834 5834 5835 5835 5835 5835 5835 5836 5837 5837 5838 5838 5839 5839 5839 5840 5840 5841 5841 5840 5840 5840 5840 5840 5840 5840 5839
5819 5820 5821 5821 5822 5823 5828 5828 5826 5827 5827 5828 5828 5828 5829 5829 5830 5831 5830 5830 5831 5831 5832 5832 5832 5833 5834 5834 5835 5835 5836 5836 5836 5836 5837 5837 5837 5837 5836 5836 5836 5836 5835 5835
5812 5812 5813 5815 5815 5817 5821 5822 5821 5822 5824 5823 5823 5823 5823 5824 5825 5826 5825 5826 5826 5827 5827 5828 5829 5829 5830 5831 5831 5832 5832 5832 5833 5833 5833 5833 5833 5833 5832 5832 5832 5832 5831 5831
5804 5806 5807 5808 5809 5814 5815 5815 5816 5816 5816 5817 5817 5817 5818 5818 5819 5820 5820 5821 5821 5822 5823 5823 5824 5824 5825 5826 5827 5827 5827 5828 5828 5828 5828 5828 5828 5828 5828 5828 5828 5827 5826 5826
5797 5799 5800 5803 5806 5807 5807 5808 5808 5809 5809 5810 5810 5811 5811 5812 5813 5814 5814 5815 5816 5817 5817 5818 5819 5820 5820 5821 5821 5822 5822 5823 5823 5823 5823 5823 5823 5823 5823 5823 5823 5822 5821 5821
5790 5791 5793 5795 5797 5799 5800 5800 5801 5802 5803 5803 5803 5804 5805 5805 5806 5807 5808 5809 5810 5811 5812 5813 5814 5814 5815 5815 5816 5816 5817 5817 5818 5818 5818 5818 5818 5818 5818 5818 5817 5817 5816 5815
5783 5784 5785 5787 5790 5792 5793 5793 5794 5795 5796 5796 5797 5797 5798 5798 5799 5800 5801 5802 5803 5804 5806 5807 5808 5808 5809 5810 5810 5811 5811 5812 5812 5812 5812 5812 5812 5812 5812 5812 5811 5811 5810 5810
5774 5776 5778 5780 5783 5784 5786 5786 5787 5788 5789 5790 5790 5791 5791 5791 5792 5793 5794 5795 5796 5798 5799 5800 5801 5802 5803 5804 5804 5804 5805 5805 5806 5806 5806 5806 5806 5806 5806 5805 5805 5804 5804 5803
Wind_Speed
7 6 6 7 7 7 8 7 7 7 6 7 6 7 7 6 6 7 6 6 5 6 5 4 4 4 4 4 4 4 4 4 4 4 3 3 3 3 2 1 1 1 2 2
7 7 7 7 7 8 7 7 7 7 7 7 7 7 7 6 6 6 6 6 5 5 4 4 4 4 3 3 4 4 3 3 3 3 3 3 3 3 2 1 1 1 2 1
8 8 8 8 8 7 7 7 7 7 7 7 7 6 6 6 6 6 6 5 4 5 5 4 4 3 3 4 4 3 3 3 3 3 3 3 2 2 1 1 1 1 1 1
8 8 8 8 8 7 6 7 7 7 7 7 7 6 7 7 6 5 5 5 4 5 4 4 4 4 3 3 4 3 3 3 4 3 3 3 3 2 2 2 2 1 1 1
7 7 7 6 7 7 7 7 7 7 7 6 6 6 6 6 6 5 5 4 4 4 4 4 4 4 4 4 4 3 4 4 4 4 3 3 4 4 3 2 2 1 1 1
8 7 7 7 7 7 7 7 7 7 7 6 6 6 5 5 5 5 5 4 4 4 4 3 4 4 4 4 4 3 3 4 4 4 3 3 3 4 4 3 3 3 2 2
8 8 7 7 7 7 6 6 7 7 6 5 6 6 5 5 4 5 5 4 4 5 4 4 4 5 5 5 5 4 4 4 4 3 3 3 4 4 4 4 4 3 3 2
8 7 7 7 6 7 6 6 7 8 7 6 6 6 5 5 5 4 5 5 6 5 5 4 5 5 5 5 5 5 5 4 4 4 3 3 2 3 4 4 4 4 3 3
9 7 7 7 7 7 7 7 8 8 7 7 7 7 6 6 6 5 5 5 6 6 6 6 6 5 5 5 5 4 4 5 5 5 4 3 2 2 2 3 4 4 4 4
9 9 8 8 8 8 8 8 8 8 8 8 8 8 7 7 6 6 6 6 6 6 6 6 6 5 5 5 5 4 5 5 5 5 4 3 3 3 3 3 3 4 4 4
10 10 9 10 9 9 9 9 9 9 9 9 9 8 7 7 7 7 7 7 7 7 6 6 5 5 5 5 5 5 5 6 6 6 5 5 4 4 5 4 4 4 4 4
12 12 11 10 10 10 10 10 10 10 10 10 10 8 8 8 8 8 7 7 7 7 6 6 6 6 6 6 6 6 6 6 7 7 6 6 6 6 6 6 6 6 6 6
13 13 13 12 11 11 10 11 11 11 11 11 10 9 9 9 9 8 8 7 7 7 7 6 6 7 7 7 7 7 7 7 7 7 7 7 7 7 7 7 7 7 7 7
14 14 14 13 12 12 11 11 11 12 12 11 11 10 10 9 9 8 8 7 7 7 7 7 7 7 7 7 7 7 7 8 8 8 8 8 9 8 8 8 8 8 8 8
15 15 15 15 14 13 14 13 12 11 11 12 11 11 10 10 9 8 9 8 8 8 7 7 7 7 8 8 8 8 9 9 9 9 9 9 9 9 9 9 9 9 9 9
17 16 16 16 15 15 15 14 14 13 13 13 12 12 12 11 10 10 10 9 9 8 7 7 7 7 8 8 8 8 9 10 10 10 10 10 10 10 10 10 10 10 10 11
18 17 17 17 16 17 17 16 16 15 14 14 14 13 13 13 13 12 11 11 10 9 8 8 8 8 8 8 8 9 9 10 10 11 10 10 11 11 11 11 12 12 12 12
19 19 19 19 18 19 17 17 16 16 16 15 15 14 14 14 13 13 13 12 11 10 10 9 9 8 9 9 10 10 10 11 11 11 11 11 12 12 12 13 13 13 13 13
21 21 21 21 21 20 18 18 17 17 17 16 16 15 15 15 14 14 14 13 13 12 11 11 10 10 10 10 11 11 12 12 12 12 12 12 12 12 13 13 13 13 14 14
23 22 23 23 22 22 19 19 19 19 18 16 17 17 16 16 16 16 15 15 14 13 13 12 11 11 11 11 13 13 13 12 12 13 14 14 13 13 13 14 15 14 15 15
24 24 24 24 24 23 20 19 20 20 18 17 17 17 17 17 17 17 17 16 16 15 14 14 13 13 13 14 14 14 14 14 14 14 15 15 14 14 14 14 15 15 16 16
24 25 25 24 25 23 21 21 21 21 20 19 18 18 18 18 18 18 18 18 17 17 17 16 15 15 15 15 16 16 16 16 16 16 16 16 16 16 15 16 16 17 17 17
25 24 24 25 24 23 22 22 21 21 21 21 20 20 19 19 19 19 19 19 18 18 18 18 17 16 15 15 16 17 17 17 17 17 17 17 17 17 17 17 17 18 18 18
26 25 26 26 24 22 22 22 22 21 21 21 20 20 20 20 20 20 19 20 20 20 19 19 18 18 17 16 16 17 17 18 18 18 18 17 17 18 18 18 19 19 19 19
28 27 27 26 25 24 24 23 23 23 22 21 20 20 20 21 21 21 21 21 21 21 21 20 20 20 19 18 18 17 18 18 19 19 19 19 19 19 19 19 19 20 20 19
28 29 28 27 26 26 25 24 24 23 23 23 22 22 22 22 22 22 23 23 22 22 21 22 21 21 20 19 19 19 19 19 19 19 19 20 20 20 20 19 19 20 19 20
Wind_Direction
268 272 278 285 288 292 295 297 302 308 310 309 307 308 305 306 310 312 313 320 322 319 313 316 312 306 295 280 267 265 263 258 250 248 270 273 277 286 289 268 297 327 328 2
270 275 281 284 286 291 292 295 302 308 304 306 309 310 308 308 312 312 311 315 317 312 310 311 303 304 297 285 277 271 260 254 249 248 257 260 268 274 258 271 315 319 325 3
269 278 280 284 287 287 290 294 298 302 302 304 312 316 314 312 307 308 306 304 303 312 313 312 307 301 288 293 277 266 260 256 258 264 265 256 260 256 233 256 287 301 353 358
272 280 283 285 285 290 294 294 297 303 303 306 306 312 316 312 307 302 297 300 291 303 308 309 304 297 289 289 270 250 255 257 255 256 256 259 248 235 236 254 272 291 331 345
275 275 283 285 287 287 289 294 296 296 296 300 305 311 318 310 307 298 291 297 295 310 312 307 302 287 283 284 273 249 248 247 248 246 249 254 244 238 237 257 256 271 291 310
267 272 280 288 291 292 292 290 288 290 293 291 296 307 316 313 310 303 298 298 300 311 309 305 298 284 278 279 271 248 250 245 244 245 245 256 253 234 234 247 247 250 265 282
261 268 275 281 287 293 294 293 286 285 290 289 287 293 303 307 306 302 303 301 289 294 292 293 293 284 275 273 263 253 251 249 243 245 251 256 251 248 240 238 235 243 253 275
261 267 274 278 285 292 292 293 292 288 279 279 287 294 300 298 298 302 298 294 283 286 288 285 288 281 271 265 262 259 255 248 243 244 250 254 255 261 250 235 231 239 247 259
262 267 269 271 278 286 287 288 288 288 285 284 292 298 298 296 295 301 300 291 280 279 286 286 286 273 262 257 258 258 254 244 238 241 242 243 252 267 270 251 235 234 238 245
263 267 269 270 274 279 283 285 284 285 284 287 288 293 294 291 294 299 298 285 275 270 276 284 282 263 249 247 250 250 248 241 236 233 238 239 252 268 270 265 248 241 240 251
265 267 266 267 272 278 278 277 278 281 281 284 287 292 296 289 288 294 293 283 277 275 273 276 274 258 250 246 250 247 243 242 238 236 238 248 257 260 261 256 253 250 254 257
267 267 266 268 270 269 270 274 278 279 282 282 284 286 285 285 288 288 289 287 280 278 282 271 258 258 254 248 249 250 245 242 239 237 238 250 258 257 255 253 255 258 261 264
262 264 266 265 265 265 269 273 274 274 276 278 281 285 281 287 286 282 283 290 289 286 282 273 259 253 254 250 250 247 244 244 244 239 240 252 259 260 258 256 259 261 265 268
257 260 262 265 269 268 267 268 271 273 277 279 280 280 278 286 292 289 289 286 291 287 282 273 260 253 251 251 249 245 243 246 248 246 247 252 259 260 261 261 263 266 266 271
253 257 261 264 266 266 266 267 268 273 275 278 277 274 273 277 288 292 290 287 287 287 279 271 261 258 252 250 251 248 244 249 252 252 252 256 259 260 262 263 262 267 270 273
252 255 259 262 265 266 265 265 267 269 272 272 273 271 271 271 278 285 284 282 281 278 275 268 264 257 253 252 249 247 247 249 251 254 256 258 258 260 265 266 264 266 268 270
251 254 257 259 263 263 263 266 269 270 270 271 273 272 268 267 270 275 278 277 277 273 266 264 260 257 253 253 255 253 250 249 252 254 256 257 257 260 264 265 264 266 268 269
252 253 256 258 259 259 263 266 268 268 269 270 271 270 268 266 265 268 271 275 275 270 264 258 255 255 251 254 258 258 256 253 253 254 257 258 261 264 265 265 266 268 272 271
251 253 255 257 258 261 262 265 268 270 269 269 268 267 268 267 264 263 266 267 269 265 261 257 254 253 255 257 259 260 260 258 255 256 259 260 265 268 267 266 267 270 271 273
250 252 255 256 258 260 262 263 266 268 267 269 267 266 266 267 264 264 265 264 263 260 258 257 256 256 258 260 262 263 261 259 258 257 257 260 264 269 270 269 270 271 271 274
250 251 253 256 258 260 261 262 265 267 270 270 268 266 265 265 265 263 261 262 259 256 257 259 260 259 259 261 263 265 262 258 258 258 257 259 264 269 271 272 272 273 274 275
251 250 253 256 258 260 263 264 265 268 268 267 266 264 264 264 263 261 260 259 258 254 254 257 259 260 260 260 262 263 262 262 262 260 261 262 264 268 270 271 273 275 275 276
252 252 253 255 258 261 262 263 264 264 265 265 263 262 263 263 263 262 259 257 257 255 254 256 258 260 262 264 263 261 260 263 264 264 264 263 263 267 269 272 273 274 276 278
251 251 252 253 254 257 259 261 263 262 261 262 263 263 263 261 260 259 258 256 256 254 254 256 257 259 261 264 264 259 260 264 265 265 264 264 266 270 270 271 273 275 276 277
249 251 254 254 255 256 258 260 261 260 261 262 263 265 266 263 259 259 259 257 257 255 253 254 256 258 258 260 261 260 262 265 265 265 264 265 267 271 272 272 273 274 275 278
250 250 253 253 254 256 258 259 261 261 262 262 263 265 266 265 260 259 258 257 256 255 255 255 256 258 258 258 259 263 263 265 265 265 265 266 268 269 271 273 275 274 276 280